Location: Croisilles
(50.1998°N, 2.8793°E)
Time: 13:35:26
(UTC+00:00)

Meteor 2-15 Rocket - Pass Details

Date: 21 January 2021
Orbit: 940 x 955 km, 82.5° (Epoch: 26 February)

Event Time Altitude Azimuth Distance (km) Brightness Sun altitude
Rises 18:59:57 0° 350° (N) 3,645 7.6 -24.5°
Reaches altitude 10° 19:02:29 10° 353° (N) 2,696 6.9 -24.9°
Maximum altitude 19:08:39 69° 77° (ENE) 1,023 4.3 -25.9°
Enters shadow 19:09:32 60° 124° (SE) 1,085 4.4 -26.1°
